Time,TemperatureF,DewpointF,PressureIn,WindDirection,WindDirectionDegrees,WindSpeedMPH,WindSpeedGustMPH,Humidity,HourlyPrecipIn,Conditions,Clouds,dailyrainin,SoftwareType,DateUTC
2013-09-24 00:04:00,63.2,51.6,29.89,North,0,0.0,0.0,66,0.00,,,0.00,WUHU216HW,2013-09-24 07:04:00,
2013-09-24 00:09:00,63.0,51.4,29.90,North,0,0.0,0.0,66,0.00,,,0.00,WUHU216HW,2013-09-24 07:09:00,
2013-09-24 00:14:00,63.0,51.4,29.89,North,0,0.0,0.0,66,0.00,,,0.00,WUHU216HW,2013-09-24 07:14:00,
2013-09-24 00:19:00,62.6,51.1,29.89,North,0,0.0,0.0,66,0.00,,,0.00,WUHU216HW,2013-09-24 07:19:00,
2013-09-24 00:24:00,62.6,51.1,29.89,North,0,0.0,0.0,66,0.00,,,0.00,WUHU216HW,2013-09-24 07:24:00,
2013-09-24 00:29:00,62.3,50.8,29.89,North,0,0.0,0.0,66,0.00,,,0.00,WUHU216HW,2013-09-24 07:29:00,
2013-09-24 00:34:00,62.3,50.8,29.89,North,0,0.0,0.0,66,0.00,,,0.00,WUHU216HW,2013-09-24 07:34:00,
2013-09-24 00:39:00,61.9,50.9,29.89,North,0,0.0,0.0,67,0.00,,,0.00,WUHU216HW,2013-09-24 07:39:00,
2013-09-24 00:44:00,61.7,51.1,29.89,North,0,0.0,0.0,68,0.00,,,0.00,WUHU216HW,2013-09-24 07:44:00,
2013-09-24 00:49:00,61.7,51.1,29.89,North,0,0.0,0.0,68,0.00,,,0.00,WUHU216HW,2013-09-24 07:49:00,
2013-09-24 00:54:00,61.6,50.9,29.89,North,0,0.0,0.0,68,0.00,,,0.00,WUHU216HW,2013-09-24 07:54:00,
2013-09-24 00:59:00,61.4,50.4,29.89,North,0,0.4,0.4,67,0.00,,,0.00,WUHU216HW,2013-09-24 07:59:00,
2013-09-24 01:04:00,60.7,50.1,29.90,North,0,0.0,0.0,68,0.00,,,0.00,WUHU216HW,2013-09-24 08:04:00,
2013-09-24 01:09:00,60.3,50.1,29.90,North,0,0.0,0.0,69,0.00,,,0.00,WUHU216HW,2013-09-24 08:09:00,
2013-09-24 01:14:00,59.8,49.6,29.90,North,0,0.0,0.0,69,0.00,,,0.00,WUHU216HW,2013-09-24 08:14:00,
2013-09-24 01:19:00,59.4,50.0,29.90,North,0,0.0,0.0,71,0.00,,,0.00,WUHU216HW,2013-09-24 08:19:00,
2013-09-24 01:24:00,59.4,50.0,29.89,North,0,0.0,0.0,71,0.00,,,0.00,WUHU216HW,2013-09-24 08:24:00,
2013-09-24 01:29:00,59.4,50.0,29.89,North,0,0.0,0.0,71,0.00,,,0.00,WUHU216HW,2013-09-24 08:29:00,
2013-09-24 01:34:00,59.6,50.2,29.89,North,0,0.0,0.0,71,0.00,,,0.00,WUHU216HW,2013-09-24 08:34:00,
2013-09-24 01:39:00,59.8,50.4,29.89,North,0,0.0,0.0,71,0.00,,,0.00,WUHU216HW,2013-09-24 08:39:00,
2013-09-24 01:44:00,59.8,50.4,29.89,North,0,0.0,0.0,71,0.00,,,0.00,WUHU216HW,2013-09-24 08:44:00,
2013-09-24 01:49:00,59.9,50.6,29.89,North,0,0.0,0.0,71,0.00,,,0.00,WUHU216HW,2013-09-24 08:49:00,
2013-09-24 01:54:00,59.8,50.0,29.89,North,0,0.0,0.0,70,0.00,,,0.00,WUHU216HW,2013-09-24 08:54:00,
2013-09-24 01:59:00,59.6,49.9,29.89,North,0,0.0,0.0,70,0.00,,,0.00,WUHU216HW,2013-09-24 08:59:00,
2013-09-24 02:04:00,59.4,50.0,29.89,North,0,0.0,0.0,71,0.00,,,0.00,WUHU216HW,2013-09-24 09:04:00,
2013-09-24 02:09:00,59.0,49.7,29.89,North,0,0.0,0.0,71,0.00,,,0.00,WUHU216HW,2013-09-24 09:09:00,
2013-09-24 02:14:00,58.9,49.9,29.89,North,0,0.0,0.0,72,0.00,,,0.00,WUHU216HW,2013-09-24 09:14:00,
2013-09-24 02:19:00,58.7,49.7,29.89,North,0,0.0,0.0,72,0.00,,,0.00,WUHU216HW,2013-09-24 09:19:00,
2013-09-24 02:24:00,58.7,49.7,29.89,North,0,0.0,0.0,72,0.00,,,0.00,WUHU216HW,2013-09-24 09:24:00,
2013-09-24 02:29:00,58.7,49.7,29.89,North,0,0.0,0.0,72,0.00,,,0.00,WUHU216HW,2013-09-24 09:29:00,
2013-09-24 02:34:00,58.7,49.7,29.88,North,0,0.0,0.0,72,0.00,,,0.00,WUHU216HW,2013-09-24 09:34:00,
2013-09-24 02:39:00,58.9,49.9,29.88,North,0,0.0,0.0,72,0.00,,,0.00,WUHU216HW,2013-09-24 09:39:00,
2013-09-24 02:44:00,58.9,49.9,29.87,North,0,0.0,0.0,72,0.00,,,0.00,WUHU216HW,2013-09-24 09:44:00,
2013-09-24 02:49:00,58.7,49.7,29.87,North,0,0.0,0.0,72,0.00,,,0.00,WUHU216HW,2013-09-24 09:49:00,
2013-09-24 02:54:00,58.7,49.7,29.87,North,0,0.0,0.0,72,0.00,,,0.00,WUHU216HW,2013-09-24 09:54:00,
2013-09-24 02:59:00,58.7,50.4,29.87,North,0,0.0,0.0,74,0.00,,,0.00,WUHU216HW,2013-09-24 09:59:00,
2013-09-24 03:04:00,58.7,50.0,29.87,North,0,0.0,0.0,73,0.00,,,0.00,WUHU216HW,2013-09-24 10:04:00,
2013-09-24 03:09:00,58.7,49.7,29.87,North,0,0.0,0.0,72,0.00,,,0.00,WUHU216HW,2013-09-24 10:09:00,
2013-09-24 03:14:00,58.5,49.9,29.87,North,0,0.0,0.0,73,0.00,,,0.00,WUHU216HW,2013-09-24 10:14:00,
2013-09-24 03:19:00,58.5,49.9,29.87,North,0,0.0,0.0,73,0.00,,,0.00,WUHU216HW,2013-09-24 10:19:00,
2013-09-24 03:24:00,58.3,49.7,29.87,North,0,0.0,0.0,73,0.00,,,0.00,WUHU216HW,2013-09-24 10:24:00,
2013-09-24 03:29:00,58.3,49.7,29.87,North,0,0.0,0.0,73,0.00,,,0.00,WUHU216HW,2013-09-24 10:29:00,
2013-09-24 03:34:00,58.3,49.7,29.87,North,0,0.0,0.0,73,0.00,,,0.00,WUHU216HW,2013-09-24 10:34:00,
2013-09-24 03:39:00,58.3,49.7,29.86,North,0,0.0,0.0,73,0.00,,,0.00,WUHU216HW,2013-09-24 10:39:00,
2013-09-24 03:44:00,58.1,49.5,29.86,North,0,0.0,0.0,73,0.00,,,0.00,WUHU216HW,2013-09-24 10:44:00,
2013-09-24 03:49:00,58.0,49.3,29.86,North,0,0.0,0.0,73,0.00,,,0.00,WUHU216HW,2013-09-24 10:49:00,
2013-09-24 03:54:00,58.0,49.3,29.86,North,0,0.0,0.0,73,0.00,,,0.00,WUHU216HW,2013-09-24 10:54:00,
2013-09-24 03:59:00,58.0,49.3,29.86,North,0,0.0,0.0,73,0.00,,,0.00,WUHU216HW,2013-09-24 10:59:00,
2013-09-24 04:04:00,57.8,49.1,29.86,North,0,0.0,0.0,73,0.00,,,0.00,WUHU216HW,2013-09-24 11:04:00,
2013-09-24 04:09:00,57.6,49.0,29.86,North,0,0.0,0.0,73,0.00,,,0.00,WUHU216HW,2013-09-24 11:09:00,
2013-09-24 04:14:00,57.2,48.6,29.86,North,0,0.0,0.0,73,0.00,,,0.00,WUHU216HW,2013-09-24 11:14:00,
2013-09-24 04:19:00,57.2,48.6,29.86,North,0,0.0,0.0,73,0.00,,,0.00,WUHU216HW,2013-09-24 11:19:00,
2013-09-24 04:24:00,57.1,48.8,29.86,North,0,0.0,0.0,74,0.00,,,0.00,WUHU216HW,2013-09-24 11:24:00,
2013-09-24 04:29:00,57.1,48.8,29.86,North,0,0.0,0.0,74,0.00,,,0.00,WUHU216HW,2013-09-24 11:29:00,
2013-09-24 04:34:00,56.9,48.6,29.87,North,0,0.0,0.0,74,0.00,,,0.00,WUHU216HW,2013-09-24 11:34:00,
2013-09-24 04:39:00,56.9,48.6,29.86,North,0,0.0,0.0,74,0.00,,,0.00,WUHU216HW,2013-09-24 11:39:00,
2013-09-24 04:44:00,56.9,49.0,29.86,North,0,0.0,0.0,75,0.00,,,0.00,WUHU216HW,2013-09-24 11:44:00,
2013-09-24 04:49:00,56.7,48.4,29.86,North,0,0.0,0.0,74,0.00,,,0.00,WUHU216HW,2013-09-24 11:49:00,
2013-09-24 04:54:00,56.5,48.2,29.86,North,0,0.0,0.0,74,0.00,,,0.00,WUHU216HW,2013-09-24 11:54:00,
2013-09-24 04:59:00,56.5,48.2,29.86,North,0,0.0,0.0,74,0.00,,,0.00,WUHU216HW,2013-09-24 11:59:00,
2013-09-24 05:04:00,56.2,48.0,29.87,North,0,0.0,0.0,74,0.00,,,0.00,WUHU216HW,2013-09-24 12:04:00,
2013-09-24 05:09:00,56.2,48.3,29.87,North,0,0.0,0.0,75,0.00,,,0.00,WUHU216HW,2013-09-24 12:09:00,
2013-09-24 05:14:00,56.2,48.0,29.87,North,0,0.0,0.0,74,0.00,,,0.00,WUHU216HW,2013-09-24 12:14:00,
2013-09-24 05:19:00,56.0,48.2,29.87,North,0,0.0,0.0,75,0.00,,,0.00,WUHU216HW,2013-09-24 12:19:00,
2013-09-24 05:24:00,55.6,47.8,29.87,North,0,0.0,0.0,75,0.00,,,0.00,WUHU216HW,2013-09-24 12:24:00,
2013-09-24 05:29:00,55.4,48.0,29.87,North,0,0.0,0.0,76,0.00,,,0.00,WUHU216HW,2013-09-24 12:29:00,
2013-09-24 05:35:00,55.4,48.0,29.87,North,0,0.0,0.0,76,0.00,,,0.00,WUHU216HW,2013-09-24 12:35:00,
2013-09-24 05:40:00,55.4,48.0,29.87,North,0,0.0,0.0,76,0.00,,,0.00,WUHU216HW,2013-09-24 12:40:00,
2013-09-24 05:45:00,55.4,48.0,29.87,North,0,0.0,0.0,76,0.00,,,0.00,WUHU216HW,2013-09-24 12:45:00,
2013-09-24 05:50:00,55.4,48.3,29.87,North,0,0.0,0.0,77,0.00,,,0.00,WUHU216HW,2013-09-24 12:50:00,
2013-09-24 05:55:00,55.4,48.0,29.87,North,0,0.0,0.0,76,0.00,,,0.00,WUHU216HW,2013-09-24 12:55:00,
2013-09-24 06:00:00,55.3,47.8,29.87,North,0,0.0,0.0,76,0.00,,,0.00,WUHU216HW,2013-09-24 13:00:00,
2013-09-24 06:05:00,55.1,47.6,29.87,North,0,0.0,0.0,76,0.00,,,0.00,WUHU216HW,2013-09-24 13:05:00,
2013-09-24 06:10:00,55.1,47.6,29.87,North,0,0.0,0.0,76,0.00,,,0.00,WUHU216HW,2013-09-24 13:10:00,
2013-09-24 06:15:00,55.1,47.6,29.87,North,0,0.0,0.0,76,0.00,,,0.00,WUHU216HW,2013-09-24 13:15:00,
2013-09-24 06:20:00,55.1,47.6,29.88,North,0,0.0,0.0,76,0.00,,,0.00,WUHU216HW,2013-09-24 13:20:00,
2013-09-24 06:25:00,54.9,47.4,29.87,North,0,0.0,0.0,76,0.00,,,0.00,WUHU216HW,2013-09-24 13:25:00,
2013-09-24 06:30:00,54.5,47.1,29.87,North,0,0.0,0.0,76,0.00,,,0.00,WUHU216HW,2013-09-24 13:30:00,
2013-09-24 06:35:00,54.4,47.6,29.87,North,0,0.0,0.0,78,0.00,,,0.00,WUHU216HW,2013-09-24 13:35:00,
2013-09-24 06:40:00,54.2,47.5,29.87,North,0,0.0,0.0,78,0.00,,,0.00,WUHU216HW,2013-09-24 13:40:00,
2013-09-24 06:45:00,54.0,48.3,29.87,North,0,0.0,0.0,81,0.00,,,0.00,WUHU216HW,2013-09-24 13:45:00,
2013-09-24 06:50:00,54.2,48.8,29.88,North,0,0.0,0.0,82,0.00,,,0.00,WUHU216HW,2013-09-24 13:50:00,
2013-09-24 06:55:00,54.4,48.3,29.87,North,0,0.0,0.0,80,0.00,,,0.00,WUHU216HW,2013-09-24 13:55:00,
2013-09-24 07:00:00,54.5,48.2,29.88,North,0,0.0,0.0,79,0.00,,,0.00,WUHU216HW,2013-09-24 14:00:00,
2013-09-24 07:05:00,54.7,48.3,29.88,North,0,0.0,0.0,79,0.00,,,0.00,WUHU216HW,2013-09-24 14:05:00,
2013-09-24 07:10:00,54.9,48.9,29.88,NNW,338,0.3,0.4,80,0.00,,,0.00,WUHU216HW,2013-09-24 14:10:00,
2013-09-24 07:15:00,55.1,49.0,29.88,NNW,338,0.2,0.2,80,0.00,,,0.00,WUHU216HW,2013-09-24 14:15:00,
2013-09-24 07:20:00,55.4,49.3,29.88,North,0,0.0,0.0,80,0.00,,,0.00,WUHU216HW,2013-09-24 14:20:00,
2013-09-24 07:25:00,56.0,50.2,29.88,North,0,0.0,0.0,81,0.00,,,0.00,WUHU216HW,2013-09-24 14:25:00,
2013-09-24 07:30:00,56.5,50.4,29.88,North,0,0.0,0.0,80,0.00,,,0.00,WUHU216HW,2013-09-24 14:30:00,
2013-09-24 07:35:00,57.1,50.6,29.88,North,0,0.0,0.0,79,0.00,,,0.00,WUHU216HW,2013-09-24 14:35:00,
2013-09-24 07:40:00,57.4,50.9,29.89,North,0,0.0,0.0,79,0.00,,,0.00,WUHU216HW,2013-09-24 14:40:00,
2013-09-24 07:45:00,58.0,51.5,29.88,North,0,0.0,0.0,79,0.00,,,0.00,WUHU216HW,2013-09-24 14:45:00,
2013-09-24 07:50:00,58.7,52.2,29.89,North,0,0.0,0.0,79,0.00,,,0.00,WUHU216HW,2013-09-24 14:50:00,
2013-09-24 07:55:00,59.4,52.6,29.89,North,0,0.0,0.0,78,0.00,,,0.00,WUHU216HW,2013-09-24 14:55:00,
2013-09-24 08:00:00,60.1,52.9,29.89,North,0,0.0,0.0,77,0.00,,,0.00,WUHU216HW,2013-09-24 15:00:00,
2013-09-24 08:05:00,60.7,53.5,29.89,North,0,0.0,0.0,77,0.00,,,0.00,WUHU216HW,2013-09-24 15:05:00,
2013-09-24 08:10:00,61.6,53.9,29.89,North,0,0.0,0.0,76,0.00,,,0.00,WUHU216HW,2013-09-24 15:10:00,
2013-09-24 08:15:00,62.3,53.8,29.89,North,0,0.0,0.0,74,0.00,,,0.00,WUHU216HW,2013-09-24 15:15:00,
2013-09-24 08:20:00,63.4,54.9,29.89,North,0,0.0,0.0,74,0.00,,,0.00,WUHU216HW,2013-09-24 15:20:00,
2013-09-24 08:25:00,64.1,55.3,29.90,North,0,0.0,0.0,73,0.00,,,0.00,WUHU216HW,2013-09-24 15:25:00,
2013-09-24 08:30:00,64.8,55.6,29.90,North,0,0.0,0.0,72,0.00,,,0.00,WUHU216HW,2013-09-24 15:30:00,
2013-09-24 08:35:00,65.7,55.7,29.90,North,0,0.0,0.0,70,0.00,,,0.00,WUHU216HW,2013-09-24 15:35:00,
2013-09-24 08:40:00,66.6,56.1,29.90,North,0,0.0,0.0,69,0.00,,,0.00,WUHU216HW,2013-09-24 15:40:00,
2013-09-24 08:45:00,67.3,56.0,29.90,North,0,0.0,0.0,67,0.00,,,0.00,WUHU216HW,2013-09-24 15:45:00,
2013-09-24 08:50:00,68.2,56.0,29.90,North,0,0.0,0.0,65,0.00,,,0.00,WUHU216HW,2013-09-24 15:50:00,
2013-09-24 08:55:00,68.9,55.8,29.91,North,0,0.0,0.0,63,0.00,,,0.00,WUHU216HW,2013-09-24 15:55:00,
2013-09-24 09:00:00,69.5,55.9,29.91,North,0,0.0,0.0,62,0.00,,,0.00,WUHU216HW,2013-09-24 16:00:00,
2013-09-24 09:05:00,70.2,56.2,29.91,North,0,0.0,0.0,61,0.00,,,0.00,WUHU216HW,2013-09-24 16:05:00,
2013-09-24 09:10:00,70.7,56.3,29.91,North,0,0.0,0.0,60,0.00,,,0.00,WUHU216HW,2013-09-24 16:10:00,
2013-09-24 09:15:00,71.5,55.9,29.91,ESE,113,0.2,0.2,58,0.00,,,0.00,WUHU216HW,2013-09-24 16:15:00,
2013-09-24 09:20:00,72.2,56.1,29.91,ESE,113,0.2,0.2,57,0.00,,,0.00,WUHU216HW,2013-09-24 16:20:00,
2013-09-24 09:25:00,72.7,56.0,29.91,ESE,113,0.2,0.2,56,0.00,,,0.00,WUHU216HW,2013-09-24 16:25:00,
2013-09-24 09:30:00,73.3,56.0,29.91,NNW,331,0.2,0.2,55,0.00,,,0.00,WUHU216HW,2013-09-24 16:30:00,
2013-09-24 09:35:00,73.4,55.2,29.92,North,0,0.2,0.2,53,0.00,,,0.00,WUHU216HW,2013-09-24 16:35:00,
2013-09-24 09:40:00,73.8,55.0,29.91,North,0,0.0,0.0,52,0.00,,,0.00,WUHU216HW,2013-09-24 16:40:00,
2013-09-24 09:45:00,74.2,55.4,29.92,North,0,0.2,0.4,52,0.00,,,0.00,WUHU216HW,2013-09-24 16:45:00,
2013-09-24 09:50:00,74.9,55.1,29.91,SW,221,0.2,0.2,50,0.00,,,0.00,WUHU216HW,2013-09-24 16:50:00,
2013-09-24 09:55:00,75.4,55.6,29.91,NW,315,0.2,0.2,50,0.00,,,0.00,WUHU216HW,2013-09-24 16:55:00,
2013-09-24 10:00:00,75.8,54.7,29.91,North,0,0.0,0.0,48,0.00,,,0.00,WUHU216HW,2013-09-24 17:00:00,
2013-09-24 10:05:00,76.0,55.4,29.91,North,0,0.0,0.0,49,0.00,,,0.00,WUHU216HW,2013-09-24 17:05:00,
2013-09-24 10:10:00,76.5,55.4,29.91,SW,225,0.2,0.2,48,0.00,,,0.00,WUHU216HW,2013-09-24 17:10:00,
2013-09-24 10:15:00,76.9,55.7,29.91,North,0,0.0,0.0,48,0.00,,,0.00,WUHU216HW,2013-09-24 17:15:00,
2013-09-24 10:20:00,77.4,55.5,29.90,North,0,0.0,0.0,47,0.00,,,0.00,WUHU216HW,2013-09-24 17:20:00,
2013-09-24 10:25:00,77.9,55.5,29.90,North,0,0.0,0.0,46,0.00,,,0.00,WUHU216HW,2013-09-24 17:25:00,
2013-09-24 10:30:00,78.1,55.6,29.90,North,0,0.0,0.0,46,0.00,,,0.00,WUHU216HW,2013-09-24 17:30:00,
2013-09-24 10:35:00,78.5,55.3,29.90,North,0,0.0,0.0,45,0.00,,,0.00,WUHU216HW,2013-09-24 17:35:00,
2013-09-24 10:40:00,78.8,55.6,29.90,NNE,23,0.2,0.2,45,0.00,,,0.00,WUHU216HW,2013-09-24 17:40:00,
2013-09-24 10:45:00,79.0,55.2,29.90,NW,315,0.2,0.2,44,0.00,,,0.00,WUHU216HW,2013-09-24 17:45:00,
2013-09-24 10:50:00,79.2,55.4,29.90,North,0,0.0,0.0,44,0.00,,,0.00,WUHU216HW,2013-09-24 17:50:00,
2013-09-24 10:55:00,79.4,54.9,29.90,North,0,0.0,0.0,43,0.00,,,0.00,WUHU216HW,2013-09-24 17:55:00,
2013-09-24 11:00:00,79.6,55.6,29.90,North,0,0.0,0.0,44,0.00,,,0.00,WUHU216HW,2013-09-24 18:00:00,
2013-09-24 11:05:00,80.1,55.5,29.89,NW,324,0.3,0.4,43,0.00,,,0.00,WUHU216HW,2013-09-24 18:05:00,
2013-09-24 11:10:00,80.5,55.9,29.89,NW,312,0.2,0.2,43,0.00,,,0.00,WUHU216HW,2013-09-24 18:10:00,
2013-09-24 11:15:00,80.6,56.0,29.89,WNW,285,0.2,0.2,43,0.00,,,0.00,WUHU216HW,2013-09-24 18:15:00,
2013-09-24 11:20:00,81.2,55.3,29.89,SSW,203,0.2,0.2,41,0.00,,,0.00,WUHU216HW,2013-09-24 18:20:00,
2013-09-24 11:25:00,81.5,55.0,29.89,NNW,343,0.3,0.4,40,0.00,,,0.00,WUHU216HW,2013-09-24 18:25:00,
2013-09-24 11:31:00,81.7,55.8,29.88,NNW,334,0.3,0.4,41,0.00,,,0.00,WUHU216HW,2013-09-24 18:31:00,
2013-09-24 11:36:00,81.9,55.4,29.88,NW,315,0.2,0.2,40,0.00,,,0.00,WUHU216HW,2013-09-24 18:36:00,
2013-09-24 11:41:00,82.3,56.3,29.87,NW,315,0.2,0.2,41,0.00,,,0.00,WUHU216HW,2013-09-24 18:41:00,
2013-09-24 11:46:00,82.4,55.8,29.87,West,267,1.2,2.9,40,0.00,,,0.00,WUHU216HW,2013-09-24 18:46:00,
2013-09-24 11:51:00,82.8,56.2,29.87,West,269,1.3,2.7,40,0.00,,,0.00,WUHU216HW,2013-09-24 18:51:00,
2013-09-24 11:56:00,83.0,56.3,29.87,NW,309,1.6,4.5,40,0.00,,,0.00,WUHU216HW,2013-09-24 18:56:00,
2013-09-24 12:01:00,83.0,56.3,29.87,NW,312,1.5,3.4,40,0.00,,,0.00,WUHU216HW,2013-09-24 19:01:00,
2013-09-24 12:06:00,83.3,55.8,29.87,SW,226,1.3,3.1,39,0.00,,,0.00,WUHU216HW,2013-09-24 19:06:00,
2013-09-24 12:11:00,83.3,55.8,29.86,WNW,294,1.9,4.5,39,0.00,,,0.00,WUHU216HW,2013-09-24 19:11:00,
2013-09-24 12:16:00,83.5,56.0,29.86,WNW,294,2.0,4.0,39,0.00,,,0.00,WUHU216HW,2013-09-24 19:16:00,
2013-09-24 12:21:00,84.1,55.7,29.85,SW,216,2.4,4.0,38,0.00,,,0.00,WUHU216HW,2013-09-24 19:21:00,
2013-09-24 12:26:00,84.8,56.4,29.85,SSW,204,1.1,3.4,38,0.00,,,0.00,WUHU216HW,2013-09-24 19:26:00,
2013-09-24 12:31:00,85.0,56.5,29.85,West,259,1.7,5.4,38,0.00,,,0.00,WUHU216HW,2013-09-24 19:31:00,
2013-09-24 12:36:00,85.7,57.2,29.84,SSE,157,2.6,4.0,38,0.00,,,0.00,WUHU216HW,2013-09-24 19:36:00,
2013-09-24 12:41:00,85.3,54.5,29.84,WSW,258,3.2,5.4,35,0.00,,,0.00,WUHU216HW,2013-09-24 19:41:00,
2013-09-24 12:46:00,85.3,56.0,29.84,SW,215,1.9,3.6,37,0.00,,,0.00,WUHU216HW,2013-09-24 19:46:00,
2013-09-24 12:51:00,85.5,55.4,29.84,WNW,291,1.7,2.9,36,0.00,,,0.00,WUHU216HW,2013-09-24 19:51:00,
2013-09-24 12:56:00,85.0,55.7,29.84,NNE,23,2.0,4.0,37,0.00,,,0.00,WUHU216HW,2013-09-24 19:56:00,
2013-09-24 13:01:00,85.1,55.9,29.84,WNW,293,1.9,4.0,37,0.00,,,0.00,WUHU216HW,2013-09-24 20:01:00,
2013-09-24 13:06:00,85.5,55.4,29.83,SSW,209,2.3,5.4,36,0.00,,,0.00,WUHU216HW,2013-09-24 20:06:00,
2013-09-24 13:11:00,86.0,56.7,29.83,South,178,1.9,3.6,37,0.00,,,0.00,WUHU216HW,2013-09-24 20:11:00,
2013-09-24 13:16:00,86.0,54.3,29.83,WNW,296,2.7,5.1,34,0.00,,,0.00,WUHU216HW,2013-09-24 20:16:00,
2013-09-24 13:21:00,86.2,54.5,29.83,West,279,1.7,4.7,34,0.00,,,0.00,WUHU216HW,2013-09-24 20:21:00,
2013-09-24 13:26:00,86.0,55.1,29.82,NW,304,1.5,4.7,35,0.00,,,0.00,WUHU216HW,2013-09-24 20:26:00,
2013-09-24 13:31:00,86.0,55.1,29.82,WNW,284,2.2,4.0,35,0.00,,,0.00,WUHU216HW,2013-09-24 20:31:00,
2013-09-24 13:36:00,86.2,55.3,29.82,NW,305,2.6,4.9,35,0.00,,,0.00,WUHU216HW,2013-09-24 20:36:00,
2013-09-24 13:41:00,86.2,55.3,29.82,WNW,286,3.7,5.1,35,0.00,,,0.00,WUHU216HW,2013-09-24 20:41:00,
2013-09-24 13:46:00,86.6,55.5,29.82,West,272,3.6,7.2,35,0.00,,,0.00,WUHU216HW,2013-09-24 20:46:00,
2013-09-24 13:51:00,86.6,54.7,29.82,WNW,282,1.9,3.6,34,0.00,,,0.00,WUHU216HW,2013-09-24 20:51:00,
2013-09-24 13:56:00,86.9,55.1,29.82,WNW,289,3.3,5.6,34,0.00,,,0.00,WUHU216HW,2013-09-24 20:56:00,
2013-09-24 14:01:00,87.1,54.4,29.82,WNW,284,1.6,4.0,33,0.00,,,0.00,WUHU216HW,2013-09-24 21:01:00,
2013-09-24 14:06:00,87.3,53.7,29.81,West,273,2.4,5.6,32,0.00,,,0.00,WUHU216HW,2013-09-24 21:06:00,
2013-09-24 14:11:00,87.1,54.4,29.81,WNW,295,3.1,4.7,33,0.00,,,0.00,WUHU216HW,2013-09-24 21:11:00,
2013-09-24 14:16:00,87.5,53.9,29.81,WNW,296,1.7,4.3,32,0.00,,,0.00,WUHU216HW,2013-09-24 21:16:00,
2013-09-24 14:21:00,87.5,54.7,29.80,WNW,301,2.5,4.0,33,0.00,,,0.00,WUHU216HW,2013-09-24 21:21:00,
2013-09-24 14:26:00,87.7,54.0,29.81,WNW,288,2.3,4.0,32,0.00,,,0.00,WUHU216HW,2013-09-24 21:26:00,
2013-09-24 14:31:00,87.7,54.0,29.80,SSW,210,1.4,2.7,32,0.00,,,0.00,WUHU216HW,2013-09-24 21:31:00,
2013-09-24 14:36:00,88.2,54.6,29.80,South,180,1.7,3.4,32,0.00,,,0.00,WUHU216HW,2013-09-24 21:36:00,
2013-09-24 14:41:00,88.2,54.6,29.80,West,274,1.8,4.7,32,0.00,,,0.00,WUHU216HW,2013-09-24 21:41:00,
2013-09-24 14:46:00,88.0,54.4,29.80,WNW,291,3.8,5.8,32,0.00,,,0.00,WUHU216HW,2013-09-24 21:46:00,
2013-09-24 14:51:00,88.2,54.6,29.80,WNW,291,2.6,5.4,32,0.00,,,0.00,WUHU216HW,2013-09-24 21:51:00,
2013-09-24 14:56:00,88.0,53.6,29.79,West,270,1.9,4.7,31,0.00,,,0.00,WUHU216HW,2013-09-24 21:56:00,
2013-09-24 15:01:00,87.8,53.4,29.79,NNE,16,1.6,3.4,31,0.00,,,0.00,WUHU216HW,2013-09-24 22:01:00,
2013-09-24 15:06:00,87.8,53.4,29.79,West,275,1.5,4.0,31,0.00,,,0.00,WUHU216HW,2013-09-24 22:06:00,
2013-09-24 15:11:00,88.2,53.7,29.79,SW,225,1.7,3.8,31,0.00,,,0.00,WUHU216HW,2013-09-24 22:11:00,
2013-09-24 15:16:00,88.2,52.9,29.79,West,262,1.2,2.5,30,0.00,,,0.00,WUHU216HW,2013-09-24 22:16:00,
2013-09-24 15:21:00,88.6,54.8,29.79,West,273,1.3,3.4,32,0.00,,,0.00,WUHU216HW,2013-09-24 22:21:00,
2013-09-24 15:26:00,88.6,53.2,29.78,South,178,1.8,3.8,30,0.00,,,0.00,WUHU216HW,2013-09-24 22:26:00,
2013-09-24 15:31:00,88.4,53.0,29.79,South,180,1.8,4.3,30,0.00,,,0.00,WUHU216HW,2013-09-24 22:31:00,
2013-09-24 15:36:00,88.4,53.0,29.78,West,280,2.2,4.7,30,0.00,,,0.00,WUHU216HW,2013-09-24 22:36:00,
2013-09-24 15:41:00,88.7,53.4,29.78,WSW,257,1.4,2.5,30,0.00,,,0.00,WUHU216HW,2013-09-24 22:41:00,
2013-09-24 15:46:00,88.9,53.6,29.78,SW,218,1.2,2.2,30,0.00,,,0.00,WUHU216HW,2013-09-24 22:46:00,
2013-09-24 15:51:00,89.3,52.7,29.78,SW,224,2.1,3.8,29,0.00,,,0.00,WUHU216HW,2013-09-24 22:51:00,
2013-09-24 15:56:00,89.3,52.7,29.77,NW,314,1.5,3.4,29,0.00,,,0.00,WUHU216HW,2013-09-24 22:56:00,
2013-09-24 16:01:00,88.7,51.2,29.77,WNW,289,2.1,4.7,28,0.00,,,0.00,WUHU216HW,2013-09-24 23:01:00,
2013-09-24 16:06:00,88.6,52.1,29.78,WNW,302,2.2,4.0,29,0.00,,,0.00,WUHU216HW,2013-09-24 23:06:00,
2013-09-24 16:11:00,88.7,52.3,29.77,West,268,1.8,3.4,29,0.00,,,0.00,WUHU216HW,2013-09-24 23:11:00,
2013-09-24 16:16:00,89.3,52.7,29.77,SSW,212,1.9,3.4,29,0.00,,,0.00,WUHU216HW,2013-09-24 23:16:00,
2013-09-24 16:21:00,89.3,52.7,29.77,WNW,284,2.5,4.0,29,0.00,,,0.00,WUHU216HW,2013-09-24 23:21:00,
2013-09-24 16:26:00,89.3,52.7,29.76,WSW,250,1.6,4.0,29,0.00,,,0.00,WUHU216HW,2013-09-24 23:26:00,
2013-09-24 16:31:00,89.3,52.7,29.76,West,280,2.3,4.5,29,0.00,,,0.00,WUHU216HW,2013-09-24 23:31:00,
2013-09-24 16:36:00,89.3,52.7,29.76,WSW,245,1.2,2.0,29,0.00,,,0.00,WUHU216HW,2013-09-24 23:36:00,
2013-09-24 16:41:00,89.3,51.7,29.76,West,276,2.3,4.0,28,0.00,,,0.00,WUHU216HW,2013-09-24 23:41:00,
2013-09-24 16:46:00,89.1,51.6,29.76,WNW,284,1.7,3.4,28,0.00,,,0.00,WUHU216HW,2013-09-24 23:46:00,
2013-09-24 16:51:00,88.9,51.4,29.75,West,281,1.4,2.5,28,0.00,,,0.00,WUHU216HW,2013-09-24 23:51:00,
2013-09-24 16:56:00,88.6,51.0,29.75,WNW,289,2.4,3.6,28,0.00,,,0.00,WUHU216HW,2013-09-24 23:56:00,
2013-09-24 17:01:00,88.6,52.1,29.75,NW,321,1.3,3.1,29,0.00,,,0.00,WUHU216HW,2013-09-25 00:01:00,
2013-09-24 17:06:00,88.0,51.7,29.75,NNW,341,0.7,2.0,29,0.00,,,0.00,WUHU216HW,2013-09-25 00:06:00,
2013-09-24 17:11:00,87.7,51.4,29.75,NW,311,2.4,4.0,29,0.00,,,0.00,WUHU216HW,2013-09-25 00:11:00,
2013-09-24 17:16:00,87.7,51.4,29.75,WNW,288,3.6,4.9,29,0.00,,,0.00,WUHU216HW,2013-09-25 00:16:00,
2013-09-24 17:21:00,87.3,51.0,29.75,NW,308,2.4,4.3,29,0.00,,,0.00,WUHU216HW,2013-09-25 00:21:00,
2013-09-24 17:26:00,87.3,52.1,29.75,WNW,302,2.8,4.0,30,0.00,,,0.00,WUHU216HW,2013-09-25 00:26:00,
2013-09-24 17:31:00,87.1,52.0,29.75,NW,308,2.6,3.4,30,0.00,,,0.00,WUHU216HW,2013-09-25 00:31:00,
2013-09-24 17:36:00,86.9,51.8,29.75,NW,317,3.3,4.0,30,0.00,,,0.00,WUHU216HW,2013-09-25 00:36:00,
2013-09-24 17:41:00,86.8,51.7,29.75,NW,306,3.1,5.6,30,0.00,,,0.00,WUHU216HW,2013-09-25 00:41:00,
2013-09-24 17:46:00,86.4,51.4,29.75,NNW,338,1.6,3.1,30,0.00,,,0.00,WUHU216HW,2013-09-25 00:46:00,
2013-09-24 17:51:00,86.0,51.9,29.75,NW,316,3.0,4.5,31,0.00,,,0.00,WUHU216HW,2013-09-25 00:51:00,
2013-09-24 17:56:00,85.9,50.9,29.74,NW,318,2.7,4.0,30,0.00,,,0.00,WUHU216HW,2013-09-25 00:56:00,
2013-09-24 18:01:00,85.7,51.6,29.74,NW,315,2.3,3.4,31,0.00,,,0.00,WUHU216HW,2013-09-25 01:01:00,
2013-09-24 18:06:00,85.3,51.3,29.74,NW,313,3.0,4.0,31,0.00,,,0.00,WUHU216HW,2013-09-25 01:06:00,
2013-09-24 18:11:00,85.0,50.9,29.75,NW,313,3.4,4.5,31,0.00,,,0.00,WUHU216HW,2013-09-25 01:11:00,
2013-09-24 18:16:00,84.6,50.6,29.74,NW,318,2.6,4.0,31,0.00,,,0.00,WUHU216HW,2013-09-25 01:16:00,
2013-09-24 18:21:00,84.2,50.3,29.74,NW,320,1.9,3.1,31,0.00,,,0.00,WUHU216HW,2013-09-25 01:21:00,
2013-09-24 18:26:00,83.9,50.0,29.74,NW,315,1.8,2.7,31,0.00,,,0.00,WUHU216HW,2013-09-25 01:26:00,
2013-09-24 18:31:00,83.3,50.3,29.74,NW,314,0.8,1.3,32,0.00,,,0.00,WUHU216HW,2013-09-25 01:31:00,
2013-09-24 18:36:00,83.0,50.0,29.74,NW,313,1.5,1.8,32,0.00,,,0.00,WUHU216HW,2013-09-25 01:36:00,
2013-09-24 18:41:00,82.6,50.4,29.74,NW,308,1.1,1.8,33,0.00,,,0.00,WUHU216HW,2013-09-25 01:41:00,
2013-09-24 18:46:00,82.3,51.0,29.74,North,0,0.0,0.0,34,0.00,,,0.00,WUHU216HW,2013-09-25 01:46:00,
2013-09-24 18:51:00,81.7,51.2,29.74,North,0,0.0,0.0,35,0.00,,,0.00,WUHU216HW,2013-09-25 01:51:00,
2013-09-24 18:56:00,81.4,52.5,29.74,North,0,0.0,0.0,37,0.00,,,0.00,WUHU216HW,2013-09-25 01:56:00,
2013-09-24 19:01:00,80.6,52.7,29.74,North,0,0.0,0.0,38,0.00,,,0.00,WUHU216HW,2013-09-25 02:01:00,
2013-09-24 19:06:00,80.1,52.1,29.74,North,0,0.0,0.0,38,0.00,,,0.00,WUHU216HW,2013-09-25 02:06:00,
2013-09-24 19:11:00,79.6,52.5,29.74,North,0,0.0,0.0,39,0.00,,,0.00,WUHU216HW,2013-09-25 02:11:00,
2013-09-24 19:16:00,79.0,52.8,29.74,North,0,0.0,0.0,40,0.00,,,0.00,WUHU216HW,2013-09-25 02:16:00,
2013-09-24 19:21:00,78.5,52.2,29.74,North,0,0.0,0.0,40,0.00,,,0.00,WUHU216HW,2013-09-25 02:21:00,
2013-09-24 19:26:00,77.8,52.2,29.74,North,0,0.0,0.0,41,0.00,,,0.00,WUHU216HW,2013-09-25 02:26:00,
2013-09-24 19:31:00,77.0,52.2,29.74,North,0,0.0,0.0,42,0.00,,,0.00,WUHU216HW,2013-09-25 02:31:00,
2013-09-24 19:36:00,76.3,52.1,29.74,North,0,0.0,0.0,43,0.00,,,0.00,WUHU216HW,2013-09-25 02:36:00,
2013-09-24 19:41:00,76.0,52.4,29.74,North,0,0.0,0.0,44,0.00,,,0.00,WUHU216HW,2013-09-25 02:41:00,
2013-09-24 19:46:00,75.2,52.4,29.74,North,0,0.0,0.0,45,0.00,,,0.00,WUHU216HW,2013-09-25 02:46:00,
2013-09-24 19:51:00,74.9,52.7,29.74,North,0,0.0,0.0,46,0.00,,,0.00,WUHU216HW,2013-09-25 02:51:00,
2013-09-24 19:56:00,74.3,52.8,29.74,North,0,0.0,0.0,47,0.00,,,0.00,WUHU216HW,2013-09-25 02:56:00,
2013-09-24 20:01:00,73.8,52.2,29.74,North,0,0.0,0.0,47,0.00,,,0.00,WUHU216HW,2013-09-25 03:01:00,
2013-09-24 20:06:00,73.6,52.7,29.74,North,0,0.0,0.0,48,0.00,,,0.00,WUHU216HW,2013-09-25 03:06:00,
2013-09-24 20:11:00,73.3,52.9,29.74,North,0,0.0,0.0,49,0.00,,,0.00,WUHU216HW,2013-09-25 03:11:00,
2013-09-24 20:16:00,72.9,52.6,29.74,North,0,0.0,0.0,49,0.00,,,0.00,WUHU216HW,2013-09-25 03:16:00,
2013-09-24 20:21:00,72.5,52.2,29.75,North,0,0.0,0.0,49,0.00,,,0.00,WUHU216HW,2013-09-25 03:21:00,
2013-09-24 20:26:00,72.2,52.5,29.75,North,0,0.0,0.0,50,0.00,,,0.00,WUHU216HW,2013-09-25 03:26:00,
2013-09-24 20:31:00,71.8,52.7,29.75,North,0,0.0,0.0,51,0.00,,,0.00,WUHU216HW,2013-09-25 03:31:00,
2013-09-24 20:36:00,71.5,52.8,29.75,North,0,0.0,0.0,52,0.00,,,0.00,WUHU216HW,2013-09-25 03:36:00,
2013-09-24 20:41:00,71.1,53.0,29.75,North,0,0.0,0.0,53,0.00,,,0.00,WUHU216HW,2013-09-25 03:41:00,
2013-09-24 20:46:00,70.9,52.9,29.76,North,0,0.0,0.0,53,0.00,,,0.00,WUHU216HW,2013-09-25 03:46:00,
2013-09-24 20:51:00,70.6,53.1,29.76,North,0,0.0,0.0,54,0.00,,,0.00,WUHU216HW,2013-09-25 03:51:00,
2013-09-24 20:56:00,70.4,53.4,29.76,North,0,0.0,0.0,55,0.00,,,0.00,WUHU216HW,2013-09-25 03:56:00,
2013-09-24 21:01:00,70.4,53.4,29.76,North,0,0.0,0.0,55,0.00,,,0.00,WUHU216HW,2013-09-25 04:01:00,
2013-09-24 21:06:00,70.2,53.3,29.76,North,0,0.0,0.0,55,0.00,,,0.00,WUHU216HW,2013-09-25 04:06:00,
2013-09-24 21:11:00,69.8,52.4,29.76,North,0,0.0,0.0,54,0.00,,,0.00,WUHU216HW,2013-09-25 04:11:00,
2013-09-24 21:16:00,69.8,52.4,29.76,NW,313,0.7,0.9,54,0.00,,,0.00,WUHU216HW,2013-09-25 04:16:00,
2013-09-24 21:21:00,70.0,52.6,29.76,NW,316,0.7,1.1,54,0.00,,,0.00,WUHU216HW,2013-09-25 04:21:00,
2013-09-24 21:26:00,70.2,52.7,29.76,NNW,339,0.3,0.7,54,0.00,,,0.00,WUHU216HW,2013-09-25 04:26:00,
2013-09-24 21:31:00,70.6,52.6,29.76,NNW,335,0.4,0.7,53,0.00,,,0.00,WUHU216HW,2013-09-25 04:31:00,
2013-09-24 21:36:00,70.6,52.0,29.75,NNW,330,0.4,0.9,52,0.00,,,0.00,WUHU216HW,2013-09-25 04:36:00,
2013-09-24 21:41:00,70.6,52.0,29.76,NNW,338,0.5,0.9,52,0.00,,,0.00,WUHU216HW,2013-09-25 04:41:00,
2013-09-24 21:46:00,70.4,52.4,29.76,NNW,338,0.4,0.9,53,0.00,,,0.00,WUHU216HW,2013-09-25 04:46:00,
2013-09-24 21:51:00,70.2,52.2,29.76,NNW,334,0.5,1.1,53,0.00,,,0.00,WUHU216HW,2013-09-25 04:51:00,
2013-09-24 21:56:00,70.2,51.8,29.76,NNW,336,0.4,1.1,52,0.00,,,0.00,WUHU216HW,2013-09-25 04:56:00,
2013-09-24 22:01:00,70.0,51.6,29.75,NNW,338,0.3,0.4,52,0.00,,,0.00,WUHU216HW,2013-09-25 05:01:00,
2013-09-24 22:06:00,69.8,51.4,29.75,NW,323,0.4,0.9,52,0.00,,,0.00,WUHU216HW,2013-09-25 05:06:00,
2013-09-24 22:11:00,69.7,51.2,29.75,NNW,330,0.5,0.9,52,0.00,,,0.00,WUHU216HW,2013-09-25 05:11:00,
2013-09-24 22:16:00,69.7,51.8,29.75,NNW,331,0.4,0.9,53,0.00,,,0.00,WUHU216HW,2013-09-25 05:16:00,
2013-09-24 22:21:00,69.7,51.2,29.75,NNW,330,0.6,1.3,52,0.00,,,0.00,WUHU216HW,2013-09-25 05:21:00,
2013-09-24 22:26:00,69.7,51.8,29.75,NNW,334,0.5,1.1,53,0.00,,,0.00,WUHU216HW,2013-09-25 05:26:00,
2013-09-24 22:31:00,69.5,51.6,29.75,NNW,327,0.8,1.3,53,0.00,,,0.00,WUHU216HW,2013-09-25 05:31:00,
2013-09-24 22:36:00,69.5,51.6,29.75,NW,318,1.2,2.2,53,0.00,,,0.00,WUHU216HW,2013-09-25 05:36:00,
2013-09-24 22:41:00,69.1,51.2,29.75,NNW,347,0.6,1.3,53,0.00,,,0.00,WUHU216HW,2013-09-25 05:41:00,
2013-09-24 22:46:00,68.8,51.4,29.75,NW,326,0.4,0.9,54,0.00,,,0.00,WUHU216HW,2013-09-25 05:46:00,
2013-09-24 22:51:00,68.6,51.2,29.75,WNW,297,0.9,1.8,54,0.00,,,0.00,WUHU216HW,2013-09-25 05:51:00,
2013-09-24 22:56:00,68.4,51.6,29.75,West,270,0.3,0.4,55,0.00,,,0.00,WUHU216HW,2013-09-25 05:56:00,
2013-09-24 23:01:00,68.2,50.9,29.75,WNW,300,0.9,1.1,54,0.00,,,0.00,WUHU216HW,2013-09-25 06:01:00,
2013-09-24 23:06:00,68.0,51.2,29.76,NW,308,1.1,1.8,55,0.00,,,0.00,WUHU216HW,2013-09-25 06:06:00,
2013-09-24 23:12:00,68.0,51.2,29.76,WNW,292,1.2,1.8,55,0.00,,,0.00,WUHU216HW,2013-09-25 06:12:00,
2013-09-24 23:17:00,67.9,51.6,29.76,NW,311,1.0,1.3,56,0.00,,,0.00,WUHU216HW,2013-09-25 06:17:00,
2013-09-24 23:22:00,67.7,51.4,29.76,NW,315,1.0,1.6,56,0.00,,,0.00,WUHU216HW,2013-09-25 06:22:00,
2013-09-24 23:27:00,67.5,51.2,29.77,NW,305,1.5,2.0,56,0.00,,,0.00,WUHU216HW,2013-09-25 06:27:00,
2013-09-24 23:32:00,67.3,51.6,29.77,NW,313,1.5,2.5,57,0.00,,,0.00,WUHU216HW,2013-09-25 06:32:00,
2013-09-24 23:37:00,67.3,51.6,29.77,NW,313,1.5,3.4,57,0.00,,,0.00,WUHU216HW,2013-09-25 06:37:00,
2013-09-24 23:42:00,67.3,51.0,29.77,NW,307,3.4,5.6,56,0.00,,,0.00,WUHU216HW,2013-09-25 06:42:00,
2013-09-24 23:47:00,67.5,51.2,29.77,NW,322,2.9,4.5,56,0.00,,,0.00,WUHU216HW,2013-09-25 06:47:00,
2013-09-24 23:52:00,67.5,51.2,29.77,NW,317,3.6,7.2,56,0.00,,,0.00,WUHU216HW,2013-09-25 06:52:00,
2013-09-24 23:57:00,67.3,51.0,29.77,NW,316,3.0,6.7,56,0.00,,,0.00,WUHU216HW,2013-09-25 06:57:00,